Temperature
15 15 16 16 13 11 13 13 13 13 13 14 14 14 13 13 14 14 14 14 14 14 14 14 14 14 14 14 14 14 14 14 14 14 14 14 14 14 14 14 14 14 14 14 14 14 14 14 14
15 15 15 15 12 12 13 13 13 13 14 14 14 14 13 13 13 14 14 14 14 14 14 13 13 14 14 14 14 14 14 14 14 14 14 14 14 14 14 14 14 14 14 14 14 14 14 14 14
15 15 15 11 11 12 13 13 12 13 14 14 13 13 13 13 13 14 14 14 13 13 13 13 13 13 13 14 14 14 14 14 14 14 14 14 14 14 14 14 14 14 14 14 14 14 14 13 13
14 15 14 11 12 12 13 13 12 12 13 13 13 12 12 13 13 13 14 14 13 13 13 13 13 13 13 13 13 13 13 14 14 14 14 14 14 14 14 14 14 14 14 13 13 13 13 13 13
14 14 11 11 12 12 11 12 13 12 12 12 12 11 12 13 13 13 13 13 13 13 13 13 13 13 13 13 13 13 13 13 13 13 13 13 13 13 13 13 13 13 13 13 13 13 13 13 13
14 11 10 11 11 11 11 12 13 12 12 12 12 11 12 12 13 13 13 13 13 13 13 13 13 13 13 13 13 13 13 13 13 13 13 13 13 13 13 13 13 13 13 13 13 13 13 13 13
12 9 10 11 11 11 12 12 12 11 11 11 12 11 11 12 12 12 12 12 12 12 12 12 12 12 12 13 13 13 13 13 13 13 13 13 13 13 13 13 13 13 13 12 12 12 12 13 13
12 9 10 9 10 11 11 12 11 11 11 12 12 11 11 12 12 12 12 12 12 12 12 12 12 12 12 12 12 12 12 12 13 13 12 12 12 12 12 12 12 12 12 12 12 12 12 12 12
12 8 9 9 10 11 11 11 11 11 11 11 11 11 11 11 11 11 11 11 11 11 11 11 12 12 12 12 12 12 12 12 12 12 12 12 12 12 12 12 12 12 12 12 12 12 12 12 12
11 8 9 10 10 10 10 10 10 10 9 9 10 11 11 11 11 11 11 11 11 11 11 11 11 11 11 11 11 11 11 11 12 12 12 12 12 12 12 12 12 11 11 11 12 12 12 12 12
9 9 9 10 10 10 10 10 10 10 9 9 10 10 11 11 11 11 11 11 11 11 11 11 11 11 11 11 11 11 11 11 11 11 11 11 11 11 11 11 11 11 11 11 11 11 11 11 11
8 8 9 9 10 10 9 9 9 9 9 10 10 10 11 10 10 10 10 10 10 10 11 11 11 11 11 11 11 11 11 11 11 11 11 11 11 11 11 11 11 11 11 11 11 11 11 11 11
8 8 9 9 9 9 9 8 8 8 9 9 9 9 10 10 9 9 9 10 10 10 10 10 10 10 10 10 10 10 10 10 10 10 10 10 11 11 11 11 11 11 11 11 11 11 10 10 10
8 8 8 8 9 9 8 7 7 7 8 9 9 9 9 9 9 9 9 9 9 10 10 10 10 10 10 10 10 10 10 10 10 10 10 10 10 10 10 10 10 10 10 10 10 10 10 10 10
8 7 7 7 8 8 8 7 6 7 8 8 8 8 7 8 8 8 8 9 9 9 9 9 9 9 9 10 9 9 9 9 9 9 9 9 9 9 9 9 10 10 10 10 10 9 9 9 9
7 7 7 7 7 7 8 7 6 7 7 7 7 7 7 7 8 8 8 8 9 9 9 9 9 9 9 9 9 9 9 9 9 9 9 9 9 9 9 9 9 9 9 9 9 9 9 9 9
6 6 6 7 6 6 6 6 6 6 6 6 6 6 6 7 7 7 8 8 8 8 8 9 9 9 9 9 8 8 8 8 8 8 8 8 9 8 9 9 9 9 9 8 9 8 8 8 8
5 5 6 6 6 6 5 5 5 5 5 5 5 6 6 6 7 7 7 7 7 8 8 8 8 8 8 8 8 8 8 8 8 8 8 8 8 8 8 8 8 8 8 8 8 8 8 8 8
6 5 5 6 6 5 5 5 5 4 4 4 4 5 5 6 6 7 7 7 7 7 7 7 7 7 7 7 7 7 7 7 7 7 7 7 8 8 8 8 8 8 8 8 8 8 7 7 7
5 5 5 5 5 5 4 4 4 4 3 4 4 4 5 6 6 6 6 6 6 6 7 7 7 7 7 7 7 7 7 7 7 7 7 7 7 7 7 7 7 7 7 7 7 7 7 7 6
5 5 5 5 5 4 4 4 4 3 3 3 4 4 5 5 6 6 6 6 6 6 6 6 6 6 6 6 6 6 6 6 6 6 6 6 6 6 7 7 7 7 7 7 7 7 7 7 6
5 5 4 4 4 3 4 4 4 3 3 2 3 3 4 4 5 5 6 6 5 5 5 6 6 6 6 5 6 6 6 5 6 6 6 6 6 6 6 6 6 6 6 6 6 6 6 6 6
4 4 4 4 3 3 3 3 4 2 3 3 2 3 4 4 4 5 5 5 5 5 5 5 5 5 5 5 5 5 5 5 5 5 5 5 5 5 5 5 5 5 5 6 6 6 6 6 5
3 3 3 2 2 3 3 3 4 2 3 3 3 3 3 4 4 4 4 5 5 4 4 4 5 5 5 4 4 4 4 4 4 5 5 5 5 5 5 5 5 5 5 5 5 5 5 5 5
3 3 3 3 3 3 2 2 3 3 2 2 2 3 3 3 3 4 4 4 4 4 4 4 4 4 4 4 4 4 4 4 4 4 4 4 4 4 4 4 4 4 4 5 5 5 5 5 5
3 3 4 4 3 2 2 2 3 2 2 2 2 3 3 3 3 3 3 3 4 4 4 4 4 4 4 4 4 4 4 3 3 3 3 4 4 4 4 4 4 4 4 4 4 4 4 4 4
3 2 2 2 1 1 1 1 1 1 1 1 1 2 2 3 3 3 3 3 3 3 3 3 3 3 3 3 3 3 3 3 3 3 3 3 3 3 3 3 3 3 3 3 3 4 4 4 4
2 1 1 2 2 2 2 1 2 2 2 1 0 1 2 2 3 3 3 3 3 3 3 3 3 3 3 3 2 2 2 3 2 2 2 3 3 3 3 3 3 3 3 3 3 3 3 3 3
1 1 1 0 1 1 1 3 2 2 1 1 0 1 1 2 2 2 2 2 2 2 2 2 2 2 2 2 2 2 2 2 2 2 2 2 2 2 2 2 2 2 2 2 2 2 2 2 2
1 1 0 1 1 -1 0 2 1 -0 -0 -0 0 1 1 2 2 2 2 2 2 2 2 2 2 2 2 2 2 2 1 1 1 1 1 1 1 1 1 2 1 1 1 1 1 1 1 2 2
Wind_Speed
7 4 3 4 4 3 3 3 2 1 1 1 1 3 5 4 3 3 1 2 3 4 5 6 9 10 10 10 10 11 11 12 12 13 13 13 13 13 14 14 14 15 16 16 16 17 17 18 18
3 3 5 4 4 2 4 4 4 3 2 2 2 2 3 1 0 1 1 0 4 5 5 6 9 11 11 11 11 11 11 11 12 12 13 13 13 13 13 14 14 15 15 15 16 16 17 17 17
2 4 4 4 4 6 5 3 4 1 0 2 2 2 1 0 0 1 1 2 4 4 5 6 10 11 11 11 11 11 11 11 12 12 12 13 13 13 13 14 14 14 15 15 16 16 17 17 17
3 4 4 3 5 5 4 2 2 2 1 2 3 1 1 1 0 1 2 4 5 4 5 6 10 11 11 11 11 11 11 11 12 12 12 12 13 13 13 13 14 14 14 15 16 16 16 17 17
4 4 3 1 5 3 2 1 2 2 0 1 2 2 1 2 3 3 4 5 5 3 4 6 9 10 11 11 10 10 11 11 12 12 12 12 13 13 13 13 13 13 14 14 15 16 16 16 16
4 4 3 5 5 3 1 1 1 1 1 1 2 2 1 2 4 2 4 4 4 4 4 5 8 9 10 11 11 10 10 11 11 12 12 12 13 13 12 12 12 13 13 14 15 15 16 16 16
4 4 4 5 3 3 2 1 3 3 2 2 2 2 1 1 2 2 3 5 5 5 4 4 6 7 8 10 10 10 10 10 11 12 12 12 12 12 12 12 12 12 13 13 14 14 15 15 15
4 4 2 3 4 4 1 0 0 2 2 0 3 4 3 2 0 3 5 5 5 4 4 4 5 6 6 7 9 10 10 11 11 11 12 12 12 12 12 11 11 11 12 13 14 14 14 14 14
3 3 4 6 5 3 1 0 1 1 2 1 1 1 2 1 3 5 4 3 3 3 3 4 5 5 5 6 8 9 10 11 11 11 12 12 11 11 11 11 11 11 12 13 14 14 14 14 13
3 4 6 3 4 3 2 2 1 1 1 0 1 3 3 4 5 5 4 3 2 1 1 3 4 4 4 5 6 7 8 9 9 10 11 11 11 11 11 11 11 11 12 13 13 13 12 12 11
3 4 3 1 1 2 1 1 1 3 2 4 3 2 2 4 4 4 3 3 3 2 1 2 3 4 4 4 5 5 6 7 9 10 10 10 10 10 10 9 10 10 11 11 11 11 11 10 10
2 1 1 2 1 0 1 1 1 2 4 2 2 3 4 5 4 4 3 3 1 1 1 1 2 3 4 4 4 4 5 6 6 8 9 9 7 7 7 7 7 8 8 9 9 9 10 10 10
2 1 1 2 1 1 0 1 2 3 3 1 2 3 4 5 4 2 1 1 1 1 1 1 2 2 3 4 3 3 4 5 6 7 8 9 7 6 6 6 6 7 7 8 8 8 8 8 8
1 1 1 2 1 1 1 3 1 5 1 1 3 2 3 4 4 2 1 1 2 2 1 1 1 2 2 3 3 3 4 5 6 6 7 8 8 7 6 6 6 5 6 7 8 8 7 6 7
1 1 3 2 1 1 1 4 5 5 2 2 1 1 1 2 2 3 3 3 3 3 2 2 2 2 2 3 3 3 4 5 5 5 7 7 8 8 7 6 5 5 6 7 8 8 7 6 6
2 1 3 3 1 1 3 8 4 2 4 3 2 1 1 3 3 3 3 3 2 3 3 2 2 2 2 2 3 3 3 4 4 6 6 7 7 8 7 6 4 5 7 6 6 5 4 4 4
2 2 4 5 2 1 4 7 3 2 4 4 3 3 2 3 4 4 4 3 3 4 4 3 2 2 2 2 2 3 3 3 4 5 6 6 7 7 7 6 5 6 6 5 5 4 4 4 4
4 4 4 5 2 2 5 8 5 2 4 5 5 4 3 4 6 4 3 3 3 3 4 3 3 3 3 2 2 2 3 3 3 3 4 6 6 7 7 6 6 7 5 3 4 4 3 4 4
4 4 5 5 2 2 7 10 9 4 4 5 5 5 5 6 4 3 2 2 2 1 3 3 4 3 3 3 3 3 2 2 2 2 3 5 6 7 7 6 6 6 4 4 5 4 5 3 3
4 4 5 5 2 3 5 10 8 6 5 5 6 6 6 5 3 3 2 1 2 3 4 4 4 4 4 3 3 2 2 2 2 2 2 3 5 6 7 6 5 5 4 4 4 5 3 2 2
4 6 6 5 4 2 3 7 5 4 3 4 4 5 5 5 6 4 3 3 2 2 4 5 4 4 4 4 3 2 2 1 1 2 1 2 4 5 6 7 6 5 5 5 5 5 5 5 3
6 4 5 4 2 4 0 5 7 4 5 5 6 5 6 5 5 4 3 3 3 4 3 4 4 4 4 4 5 5 4 3 3 2 2 2 3 5 5 6 6 6 5 5 5 5 3 6 5
4 0 2 3 3 3 2 4 7 2 6 7 6 6 6 5 5 4 4 4 3 2 2 3 4 4 4 5 6 6 4 3 2 2 3 2 2 3 5 5 5 5 4 5 6 5 4 4 5
3 3 3 2 2 5 6 6 7 5 7 5 4 5 5 5 4 4 3 2 2 1 1 1 3 4 4 5 6 6 6 5 4 4 4 3 2 2 3 4 5 5 5 5 5 6 6 5 5
3 4 2 3 2 7 3 5 9 6 6 6 6 5 5 4 3 3 2 2 2 2 2 2 3 4 4 5 5 6 6 6 7 6 5 4 3 2 3 4 4 5 5 6 6 5 5 5 6
5 6 5 5 5 5 2 8 7 5 4 4 4 4 3 3 3 3 4 3 3 3 3 3 3 3 4 5 5 5 5 5 5 5 5 5 4 4 4 5 5 5 6 6 6 5 5 5 5
5 5 3 4 1 4 6 7 8 3 3 3 3 3 3 3 3 3 3 3 3 3 4 4 4 4 4 4 4 4 5 5 5 4 4 4 3 4 4 5 5 5 5 5 5 4 5 5 5
4 6 4 4 3 6 7 6 6 5 5 4 4 4 4 3 3 3 3 3 3 3 3 3 3 4 4 4 4 4 4 4 4 4 5 4 4 4 5 4 5 5 5 5 5 4 5 5 5
5 4 4 4 4 5 5 8 6 7 6 6 6 5 4 4 4 4 3 3 2 2 2 3 3 3 3 4 4 4 4 4 4 4 5 5 4 5 5 6 5 6 6 6 5 5 5 6 5
5 7 7 6 6 5 4 8 3 5 5 5 6 5 4 4 3 3 3 2 2 2 3 3 3 3 4 4 4 4 4 4 4 5 5 5 5 5 6 6 6 6 6 6 7 7 6 7 7
Wind_Direction
348 13 55 56 62 61 218 236 216 207 220 254 157 132 141 147 160 184 335 112 105 134 154 150 141 135 129 122 117 113 110 107 102 98 95 93 96 95 93 92 91 90 90 90 91 92 93 94 93
348 30 53 63 109 185 249 229 210 217 183 116 61 83 101 145 36 58 17 86 115 130 141 142 140 138 131 124 119 115 112 108 104 100 97 95 95 98 97 95 93 93 92 92 93 93 93 92 92
21 50 83 89 144 195 210 209 207 238 117 109 80 49 111 184 242 204 247 137 108 114 127 140 140 138 134 127 120 116 112 109 106 101 98 96 94 95 99 97 94 93 93 94 94 95 94 93 93
69 51 61 101 205 218 199 197 174 150 24 61 117 80 344 4 285 200 120 120 116 103 118 137 143 137 132 128 124 120 115 110 107 103 100 97 96 93 97 98 96 95 95 96 96 97 95 95 96
61 81 85 204 235 245 234 234 184 140 154 96 135 151 291 357 24 80 111 113 125 112 112 130 140 139 134 129 125 122 118 114 110 106 101 99 97 95 93 101 101 99 99 99 98 99 98 97 98
67 79 139 221 237 259 269 245 165 176 180 109 134 158 233 29 38 74 109 106 101 106 94 117 132 136 136 133 129 126 122 118 115 111 106 103 99 98 94 97 104 104 104 103 103 101 101 101 100
116 120 184 208 227 249 248 154 155 175 188 215 170 148 267 343 6 95 98 92 85 85 80 85 116 126 135 136 133 129 126 122 117 112 108 104 102 100 99 93 101 105 107 106 106 103 103 103 103
124 118 154 205 209 238 246 79 85 155 204 156 138 156 224 265 357 105 95 89 85 73 64 65 89 106 114 127 134 129 127 123 118 114 109 104 102 100 98 94 92 104 108 108 107 105 105 103 100
96 110 204 213 199 224 204 114 353 31 112 76 76 165 276 116 120 110 95 89 93 74 51 51 67 79 102 120 132 128 127 123 117 112 106 101 97 96 93 92 88 96 106 107 105 105 103 100 95
105 180 219 212 190 193 195 177 189 110 56 353 349 8 55 105 118 130 133 148 155 145 64 47 64 70 84 113 122 124 125 119 111 108 104 101 98 96 93 92 88 92 101 103 103 99 97 92 88
137 189 209 259 234 173 178 205 173 150 232 229 222 222 136 124 130 145 159 166 184 167 92 51 61 78 82 87 106 115 117 113 112 111 110 107 100 95 90 86 84 84 93 94 96 91 88 89 88
132 252 221 271 307 114 188 166 166 194 231 264 224 170 158 157 168 176 184 180 162 121 106 66 51 74 88 93 100 112 118 118 119 123 120 114 105 97 94 88 85 82 90 94 93 92 90 88 88
171 245 272 271 301 258 279 242 221 253 279 349 95 125 162 172 179 180 169 176 154 148 112 82 69 84 98 100 100 109 120 127 131 130 128 125 121 114 106 98 90 90 92 98 100 99 96 90 87
189 187 282 304 282 282 237 277 245 262 268 111 116 148 184 183 180 178 167 210 195 188 190 156 124 102 108 106 110 115 125 134 133 134 135 132 133 127 119 109 100 98 99 107 108 108 104 95 91
102 39 325 302 275 275 160 282 242 244 171 161 162 163 200 214 195 209 215 219 209 202 196 182 170 119 131 127 122 122 130 137 136 138 139 138 137 133 128 123 116 116 114 112 110 105 100 94 88
60 77 276 285 226 261 164 253 263 225 169 196 214 199 221 247 234 237 233 230 222 198 193 190 180 152 139 132 129 126 126 128 135 139 138 136 137 138 133 128 128 130 124 118 123 119 114 103 96
30 234 244 281 217 185 195 250 272 217 181 214 230 230 230 265 266 265 254 237 226 204 193 191 177 172 165 145 130 126 126 124 131 137 141 140 140 143 138 135 135 134 125 120 131 126 127 125 112
219 228 241 249 263 202 230 255 274 245 209 231 238 240 239 252 260 267 261 238 222 208 191 186 181 177 164 148 127 120 113 109 115 123 140 145 147 148 142 137 140 137 133 126 133 132 114 126 123
180 200 245 255 261 227 240 258 270 255 234 240 239 243 252 254 263 263 258 242 209 206 193 193 190 188 165 166 172 173 180 168 142 115 118 138 145 148 144 145 149 147 151 153 145 138 128 117 121
198 229 256 282 290 233 264 268 263 244 228 227 225 232 246 262 280 283 269 252 221 220 212 199 200 197 188 184 181 179 175 173 166 146 124 137 148 156 153 149 160 158 153 148 150 144 145 144 142
225 216 236 259 325 315 308 288 252 251 232 241 233 231 239 238 249 259 259 244 236 233 231 212 208 204 195 179 150 125 114 116 147 169 176 156 160 156 160 158 156 164 165 170 169 168 159 165 174
238 233 225 241 262 280 255 279 268 246 263 253 250 242 245 246 245 247 253 256 253 244 244 216 202 200 194 177 170 164 178 195 204 195 194 173 167 165 160 162 163 167 170 176 177 172 173 165 174
217 145 181 208 205 279 242 237 276 267 258 258 250 243 248 247 242 242 241 243 248 248 241 221 196 198 190 186 184 182 191 197 175 166 179 180 174 174 167 166 163 171 175 182 182 173 174 179 177
161 85 75 65 109 260 228 209 272 228 227 247 249 253 254 254 249 248 248 249 263 257 250 247 199 205 195 190 190 191 195 185 174 183 194 198 192 188 175 172 177 181 181 185 191 187 182 191 184
107 100 17 336 297 251 214 216 252 238 226 225 242 254 257 250 242 252 262 252 263 268 264 262 224 215 206 196 199 201 200 191 193 195 198 198 200 209 209 191 191 192 193 189 190 190 192 194 196
186 163 173 217 242 279 262 236 254 243 242 237 243 251 257 261 258 256 251 244 245 249 250 248 242 227 211 206 208 205 201 201 202 203 202 204 207 211 206 203 203 200 198 196 190 195 197 194 205
165 196 177 154 243 270 263 277 297 250 260 254 252 261 261 259 265 265 264 257 248 241 243 241 241 240 220 217 211 206 205 206 210 208 206 210 210 208 204 204 209 209 202 199 194 204 204 201 209
169 156 129 162 221 259 280 267 250 247 253 264 258 256 260 273 273 269 265 261 254 250 255 256 243 240 230 216 213 217 211 211 212 209 210 214 212 209 203 212 217 217 211 204 201 209 207 205 212
151 167 169 167 185 200 264 267 225 212 221 237 251 260 259 257 253 252 258 262 262 272 256 254 255 253 245 224 221 219 214 210 208 215 217 215 212 208 206 209 214 217 214 206 208 216 211 212 216
187 186 170 189 225 206 232 267 269 222 241 249 265 275 276 266 258 251 251 262 265 266 265 257 257 253 251 234 223 226 219 208 210 221 222 218 216 214 214 211 216 221 218 210 209 215 216 216 219
Height
1504 1505 1506 1509 1513 1524 1524 1520 1517 1516 1516 1516 1516 1516 1517 1520 1523 1527 1523 1521 1523 1525 1527 1529 1531 1533 1534 1536 1537 1538 1538 1539 1540 1541 1541 1542 1542 1543 1543 1543 1544 1544 1544 1545 1546 1547 1548 1549 1550
1504 1505 1508 1509 1518 1528 1524 1517 1516 1515 1515 1515 1515 1516 1517 1518 1520 1521 1520 1521 1523 1525 1527 1529 1531 1533 1534 1536 1537 1538 1538 1539 1540 1541 1542 1542 1543 1543 1544 1544 1545 1546 1546 1547 1548 1548 1549 1550 1551
1503 1505 1508 1511 1519 1522 1518 1514 1514 1514 1514 1515 1516 1516 1517 1518 1519 1519 1520 1522 1523 1526 1527 1529 1531 1533 1534 1535 1537 1538 1538 1539 1540 1541 1542 1543 1543 1544 1545 1545 1546 1547 1547 1548 1549 1549 1550 1551 1552
1504 1506 1508 1515 1516 1515 1513 1512 1512 1513 1514 1515 1516 1517 1518 1519 1519 1520 1520 1522 1523 1525 1527 1529 1531 1533 1534 1535 1536 1538 1539 1540 1540 1541 1542 1543 1544 1544 1545 1546 1547 1547 1548 1549 1549 1550 1551 1553 1554
1504 1505 1512 1517 1515 1512 1511 1511 1512 1513 1514 1515 1515 1516 1517 1518 1519 1519 1520 1521 1523 1525 1527 1529 1531 1532 1534 1535 1536 1537 1539 1540 1541 1541 1542 1543 1544 1545 1546 1546 1547 1548 1549 1550 1550 1551 1552 1554 1555
1504 1506 1517 1518 1514 1512 1511 1511 1512 1512 1513 1514 1515 1516 1516 1517 1518 1519 1520 1521 1523 1525 1526 1528 1530 1532 1533 1535 1536 1537 1538 1540 1541 1541 1542 1543 1544 1545 1546 1547 1548 1549 1549 1550 1551 1552 1553 1554 1556
1504 1510 1515 1515 1515 1512 1511 1510 1511 1512 1513 1514 1514 1515 1515 1516 1517 1519 1520 1521 1523 1524 1526 1528 1529 1531 1533 1534 1535 1537 1538 1539 1540 1541 1542 1543 1544 1546 1546 1547 1548 1549 1550 1551 1552 1553 1554 1555 1556
1503 1509 1513 1515 1514 1512 1510 1510 1511 1511 1512 1513 1514 1514 1515 1515 1516 1518 1519 1521 1522 1524 1525 1527 1528 1530 1531 1533 1535 1536 1538 1539 1540 1541 1542 1543 1544 1546 1547 1547 1548 1549 1550 1551 1552 1553 1555 1556 1557
1503 1511 1514 1513 1512 1510 1509 1510 1511 1511 1511 1512 1513 1514 1514 1515 1515 1517 1518 1520 1521 1522 1524 1526 1527 1529 1530 1532 1533 1535 1537 1538 1539 1541 1542 1543 1544 1545 1547 1548 1548 1549 1550 1551 1552 1553 1555 1556 1557
1503 1511 1509 1507 1507 1508 1508 1508 1510 1511 1511 1511 1511 1512 1513 1513 1514 1515 1516 1518 1519 1520 1522 1524 1525 1527 1529 1531 1532 1534 1536 1537 1538 1540 1541 1542 1544 1545 1546 1547 1548 1549 1550 1551 1552 1554 1555 1556 1557
1503 1506 1505 1505 1506 1506 1507 1508 1509 1509 1511 1510 1510 1510 1511 1511 1513 1514 1515 1517 1518 1519 1521 1522 1524 1525 1527 1529 1531 1532 1534 1535 1537 1539 1540 1541 1543 1544 1546 1547 1548 1549 1550 1551 1552 1553 1555 1556 1557
1503 1504 1504 1505 1505 1505 1506 1507 1508 1508 1508 1509 1509 1509 1509 1510 1511 1512 1514 1516 1517 1518 1519 1521 1522 1524 1525 1527 1528 1530 1532 1533 1535 1537 1538 1540 1541 1543 1544 1546 1547 1548 1549 1550 1552 1553 1554 1555 1557
1503 1504 1504 1504 1504 1505 1505 1506 1507 1506 1506 1507 1507 1507 1508 1508 1510 1512 1513 1514 1515 1516 1518 1519 1521 1522 1523 1525 1526 1528 1529 1531 1533 1535 1536 1538 1540 1541 1543 1544 1546 1547 1548 1549 1551 1552 1553 1555 1556
1503 1504 1504 1503 1503 1504 1504 1505 1506 1503 1504 1505 1505 1505 1506 1507 1508 1510 1511 1512 1513 1514 1516 1517 1519 1520 1521 1523 1524 1525 1527 1529 1530 1532 1534 1536 1538 1539 1541 1543 1544 1546 1547 1549 1550 1551 1552 1554 1555
1502 1504 1504 1503 1503 1503 1504 1505 1503 1502 1503 1503 1503 1504 1505 1506 1507 1508 1509 1509 1510 1512 1514 1515 1516 1517 1519 1520 1522 1523 1524 1526 1528 1530 1532 1534 1535 1537 1539 1540 1542 1544 1545 1547 1548 1550 1551 1552 1554
1503 1506 1508 1504 1503 1503 1507 1504 1501 1501 1501 1501 1502 1502 1503 1504 1505 1506 1507 1507 1508 1509 1510 1512 1513 1514 1516 1517 1519 1521 1522 1523 1525 1527 1529 1531 1533 1535 1536 1538 1540 1541 1543 1544 1546 1548 1549 1551 1552
1508 1510 1509 1505 1502 1503 1504 1502 1499 1498 1498 1499 1499 1500 1501 1502 1502 1502 1504 1504 1505 1506 1507 1508 1510 1511 1513 1514 1516 1518 1519 1520 1522 1524 1526 1528 1530 1532 1534 1535 1537 1539 1540 1542 1544 1545 1547 1548 1550
1509 1510 1508 1506 1502 1503 1503 1501 1498 1497 1497 1496 1497 1497 1497 1498 1498 1499 1500 1501 1502 1503 1504 1505 1506 1508 1510 1511 1513 1515 1517 1518 1519 1521 1523 1525 1527 1529 1531 1532 1534 1536 1538 1539 1541 1543 1545 1546 1548
1504 1507 1507 1504 1502 1503 1502 1499 1496 1495 1495 1494 1493 1493 1493 1494 1496 1496 1497 1497 1498 1498 1500 1501 1503 1505 1506 1508 1509 1511 1513 1514 1516 1518 1520 1522 1524 1526 1527 1529 1531 1533 1534 1536 1538 1539 1541 1543 1545
1504 1506 1506 1503 1501 1502 1502 1498 1493 1491 1491 1490 1490 1489 1490 1491 1492 1492 1493 1493 1494 1495 1496 1497 1499 1501 1503 1504 1506 1508 1510 1511 1513 1515 1517 1518 1520 1522 1524 1526 1527 1529 1531 1532 1534 1536 1538 1540 1542
1503 1505 1504 1505 1503 1502 1502 1495 1491 1489 1488 1487 1486 1487 1488 1488 1488 1488 1489 1490 1491 1491 1493 1494 1496 1498 1499 1501 1503 1505 1507 1508 1509 1511 1513 1514 1517 1518 1520 1522 1524 1526 1527 1528 1530 1532 1534 1536 1539
1502 1501 1502 1504 1506 1507 1505 1502 1489 1487 1486 1484 1483 1484 1484 1484 1485 1485 1486 1486 1487 1488 1489 1491 1493 1494 1496 1497 1499 1500 1501 1503 1505 1507 1508 1511 1513 1514 1516 1518 1521 1522 1524 1525 1527 1529 1531 1533 1535
1500 1500 1502 1503 1506 1509 1507 1507 1490 1487 1485 1481 1480 1480 1480 1481 1481 1481 1482 1483 1484 1485 1486 1487 1489 1491 1492 1494 1495 1497 1498 1500 1501 1503 1505 1507 1509 1510 1512 1514 1516 1518 1520 1521 1523 1525 1527 1529 1530
1498 1501 1504 1508 1509 1508 1503 1505 1490 1486 1480 1477 1477 1477 1477 1478 1478 1479 1479 1480 1481 1482 1483 1484 1486 1487 1488 1490 1491 1493 1494 1496 1497 1499 1500 1502 1504 1506 1508 1509 1511 1514 1516 1517 1519 1521 1523 1525 1527
1498 1503 1508 1507 1510 1503 1501 1501 1486 1477 1475 1474 1474 1474 1474 1475 1475 1475 1476 1476 1477 1478 1479 1481 1482 1484 1485 1486 1487 1489 1490 1492 1493 1494 1496 1497 1499 1501 1503 1505 1507 1509 1511 1513 1515 1516 1518 1521 1523
1498 1500 1505 1508 1510 1505 1502 1497 1479 1474 1472 1471 1472 1472 1472 1472 1472 1472 1473 1474 1474 1476 1477 1478 1479 1480 1481 1482 1484 1485 1487 1488 1489 1491 1492 1493 1494 1497 1499 1500 1502 1504 1506 1508 1510 1511 1513 1516 1518
1497 1501 1501 1509 1514 1512 1501 1492 1480 1471 1470 1470 1469 1469 1469 1469 1470 1470 1471 1472 1472 1473 1474 1475 1475 1476 1477 1479 1480 1481 1483 1484 1485 1486 1487 1489 1490 1492 1494 1495 1497 1499 1500 1502 1504 1506 1508 1510 1512
1494 1498 1505 1507 1507 1506 1498 1492 1479 1470 1469 1468 1467 1466 1466 1467 1468 1468 1468 1469 1469 1470 1471 1471 1472 1473 1474 1475 1476 1477 1478 1479 1481 1482 1483 1484 1485 1487 1488 1490 1492 1493 1495 1497 1498 1500 1502 1504 1506
1496 1499 1500 1504 1505 1505 1501 1482 1468 1466 1465 1466 1465 1464 1464 1465 1465 1465 1466 1466 1466 1467 1467 1468 1469 1469 1470 1471 1472 1473 1474 1475 1476 1477 1478 1479 1481 1482 1483 1485 1486 1488 1489 1491 1492 1494 1496 1497 1499
1491 1493 1497 1499 1501 1505 1500 1480 1465 1464 1463 1463 1463 1462 1462 1462 1463 1463 1463 1463 1463 1463 1464 1464 1465 1465 1466 1467 1468 1468 1469 1470 1471 1472 1473 1474 1475 1477 1478 1479 1480 1482 1483 1484 1486 1487 1489 1491 1492